Regional Weather Roundup
Issued by NWS

Home | Current Version | Previous Version | Text Only | Print | Product List | Glossary Off
Versions: 1 2 3 4 5 6 7 8 9 10 11 12 13 14 15 16 17 18 19 20 21 22 23 24 25 26 27 28 29 30 31 32 33 34 35 36 37 38 39 40 41 42 43 44 45 46 47 48 49 50

000
ASUS43 KLMK 012210
RWRKY
KENTUCKY REGIONAL WEATHER ROUNDUP
NATIONAL WEATHER SERVICE LOUISVILLE KY
500 PM EST SUN FEB 01 2015

NOTE "FAIR" INDICATES FEW OR NO CLOUDS BELOW 12,000 FEET
WITH NO SIGNIFICANT WEATHER AND/OR OBSTRUCTIONS TO VISIBILITY.

KYZ001>023-026-027-061>063-070>075-012300-
WESTERN AND SOUTH CENTRAL KENTUCKY

CITY           SKY/WX    TMP DP  RH WIND       PRES   REMARKS
PADUCAH        CLOUDY    50  47  89 W13       29.65R
HENDERSON      CLOUDY    48  45  87 SW13      29.62R
OWENSBORO      LGT RAIN  48  48 100 S8        29.61F FOG
HOPKINSVILLE   LGT RAIN  52  52 100 SW9       29.64S
BOWLING GREEN  RAIN      52  49  89 S13       29.65F FOG
GLASGOW        RAIN      50  50 100 SW14G21   29.65F
$$

KYZ024-025-028>034-038-045-046-053-012300-
NORTH CENTRAL KENTUCKY

CITY           SKY/WX    TMP DP  RH WIND       PRES   REMARKS
LOUISVILLE/SDF RAIN      47  45  93 S8        29.61F FOG
LOUISVILLE/LOU LGT RAIN  47  44  90 S9        29.62F FOG
FORT KNOX      LGT RAIN  46  45  93 S12       29.61F
$$

KYZ035>037-039>044-047>052-055>060-089>105-012300-
NORTHEAST KENTUCKY

CITY           SKY/WX    TMP DP  RH WIND       PRES   REMARKS
LEXINGTON      LGT RAIN  45  43  93 S15       29.66F
COVINGTON      LGT RAIN  43  40  89 S16       29.62F FOG
FRANKFORT      CLOUDY    44  42  93 S9        29.64F
$$

KYZ054-064>069-076>088-106>120-012300-
SOUTHEAST KENTUCKY

CITY           SKY/WX    TMP DP  RH WIND       PRES   REMARKS
JACKSON        LGT RAIN  46  41  82 VRB5      29.73F
LONDON         RAIN      49  42  77 S8        29.76S
SOMERSET       RAIN      45  45 100 S8        29.74F
MIDDLESBORO    RAIN      45  40  83 S7        29.82S
MONTICELLO     CLOUDY    50  47  89 S13       29.74F FOG
$$



USA.gov is the U.S. government's official web portal to all federal, state and local government web resources and services.